Preview of NWS' New Version of Forecast
This preview is not operational and should not be used for support decisions.

Regional Weather Roundup (RWR)

Issued by National Weather Service (NWS)

                            
000
ASUS45 KABQ 220910
RWRNM 
NEW MEXICO REGIONAL WEATHER ROUNDUP
NATIONAL WEATHER SERVICE ALBUQUERQUE NM
300 AM MDT MON JUL 22 2019

NOTE: "FAIR" MEANS FEW OR NO CLOUDS BELOW 12,000 FEET AGL WITH NO
       SIGNIFICANT WEATHER OR OBSTRUCTIONS TO VISION.

      THIS PRODUCT IS RELEASED AS TWO VERSIONS.  ONE VERSION NEAR
      THE TOP OF THE HOUR CONTAINING PRELIMINARY DATA FROM ALBUQUERQUE
      AND OTHER STATIONS.  A FINAL VERSION WITH ADDITIONAL DATA IS 
      ISSUED ABOUT 10 MINUTES AFTER THE HOUR.
 
NMZ501-503-504-510>518-221000-
NORTHWEST PLATEAU/NORTHCENTRAL MOUNTAINS
  
CITY           SKY/WX    TMP DP  RH WIND       PRES   REMARKS
FARMINGTON     FAIR      76  44  32 E10       30.18R                  
LOS ALAMOS       N/A     66  45  46 SW12G18   30.42R                  
SANTA FE       CLOUDY    70  47  43 SE20G28   30.34R                  
ANGEL FIRE       N/A     55  46  73 N5        30.56R                  

$$
NMZ402-403-502-505>509-221000-
WESTCENTRAL MOUNTAINS/SOUTHWEST MOUNTAINS
  
CITY           SKY/WX    TMP DP  RH WIND       PRES   REMARKS
GALLUP         FAIR      63  27  25 E5        30.27R                  
GRANTS         FAIR      69  46  43 S17       30.33F                  
SILVER CITY    FAIR      77  46  33 E8        30.19S                  

$$
NMZ407-409-411-412-221000-
SOUTHERN DESERTS
  
CITY           SKY/WX    TMP DP  RH WIND       PRES   REMARKS
DEMING         FAIR      80  46  30 E8        30.10R                  
LAS CRUCES     FAIR      82  48  30 SE13G21   30.12S                  
ALAMOGORDO     FAIR      82  46  28 NW6       30.10R                  
T OR C         FAIR      79  51  37 N17G26    30.16R                  

$$
NMZ519>523-221000-
CENTRAL VALLEYS/CENTRAL HIGHLANDS
  
CITY           SKY/WX    TMP DP  RH WIND       PRES   REMARKS
ALBUQUERQUE    FAIR      73  51  46 E18G31    30.23F                  
DOUBLE EAGLE   FAIR      70  50  48 SE16      30.27F                  
MORIARTY ARPT  FAIR      64  51  62 CALM      30.38R                  
CLINES CORNERS FAIR      59  49  69 E14       30.40                   
BELEN          FAIR      71  50  47 NW10      30.22F                  
SOCORRO        FAIR      76  49  38 N5        30.20F                  

$$
NMZ524>526-539-540-221000-
SOUTHCENTRAL MOUNTAINS
  
CITY           SKY/WX    TMP DP  RH WIND       PRES   REMARKS
RUIDOSO          N/A     59  55  88 S8        30.36F                  

$$
NMZ527>531-221000-
NORTHEAST HIGHLANDS/NORTHEAST PLAINS
  
CITY           SKY/WX    TMP DP  RH WIND       PRES   REMARKS
LAS VEGAS      FAIR      56  49  77 NE7       30.44R                  
RATON          FAIR      62  52  69 NW8       30.39F                  
CLAYTON        MOCLDY    64  60  87 NE12      30.34R                  

$$
NMZ532>537-221000-
EASTCENTRAL PLAINS
  
CITY           SKY/WX    TMP DP  RH WIND       PRES   REMARKS
SANTA ROSA     PTSUNNY   74  61  63 N14       30.26S                  
TUCUMCARI      LGT RAIN  67  62  84 N10       30.23R                  
CANNON AFB     MOCLDY    69  60  73 N15       30.20F                  
CLOVIS AIRPORT FAIR      69  59  70 N10       30.20F                  

$$
NMZ028-029-538-221000-
SOUTHEAST PLAINS
  
CITY           SKY/WX    TMP DP  RH WIND       PRES   REMARKS
ROSWELL        FAIR      73  63  70 NW9       30.11F                  
ARTESIA        FAIR      73  68  83 W9        30.12R                  
CARLSBAD       LGT RAIN  74  66  76 W7        30.09R                  
HOBBS          FAIR      72  61  68 N7        30.12S                  


$$